Location: Bas Lanzent
(48.1360°N, 3.5871°W)
Time: 20:29:19
(UTC+00:00)

SL-08 R/B - Pass Details

Date: 18 February 2020
Orbit: 943 x 1009 km, 83.0° (Epoch: 03 April)

Event Time Altitude Azimuth Distance (km) Brightness Sun altitude
Rises 06:02:28 0° 350° (N) 3,667 7.4 -13.1°
Reaches altitude 10° 06:05:00 10° 351° (N) 2,707 6.7 -12.6°
Maximum altitude 06:11:12 89° 81° (E) 959 4.5 -11.6°
Drops below altitude 10° 06:17:17 10° 173° (S) 2,658 7.0 -10.6°
Sets 06:19:45 0° 173° (S) 3,596 7.6 -10.2°
